Weather History for Barranquilla, Colombia

Change the Weather History Date:

Thursday, December 6, 2012

  Actual Average Record
Temperature  
Mean Temperature 84 °F -  
Max Temperature 93 °F 89 °F 93 °F (2006)
Min Temperature 74 °F 75 °F 73 °F (1998)
Cooling Degree Days 18    
Growing Degree Days 34 (Base 50)    
Moisture  
Dew Point 75 °F    
Average Humidity 79    
Maximum Humidity 97    
Minimum Humidity 46    
Precipitation  
Precipitation 0.00 in 0.03 in - ()
Sea Level Pressure  
Sea Level Pressure 29.83 in    
Wind  
Wind Speed 5 mph ()    
Max Wind Speed 12 mph    
Max Gust Speed -    
Visibility 5.4 miles    
Events Fog    
Averages and records for this station are not official NWS values.
T = Trace of Precipitation, MM = Missing Value Source: Averaged Metar Reports

Daily Weather History Graph

Daily Weather History Graph

Search for Another Location

Airport:

Trip Planner

Search our weather history database for the weather conditions in past years. The results will help you decide how hot, cold, wet, or windy it might be!

Date:

Astronomy

Dec. 06, 2012 Rise Set
Actual Time 6:04 AM COT 5:35 PM COT
Civil Twilight 5:42 AM COT 5:58 PM COT
Nautical Twilight 5:15 AM COT 6:24 PM COT
Astronomical Twilight 4:49 AM COT 6:51 PM COT
Moon No Moon Rise 11:55 AM COT (12/6)
Length of Visible Light 12h 16m
Length of Day
11h 30m
Waning Gibbous, 49% of the Moon is Illuminated
Dec 6
Waning Gibbous
Dec 13
New
Dec 20
First Quarter
Dec 28
Full
Jan 4
Last Quarter

Hourly Weather History & Observations

Time (COT) Temp. Heat Index Dew Point Humidity Pressure Visibility Wind Dir Wind Speed Gust Speed Precip Events Conditions
12:00 AM 80.6 °F 86.2 °F 75.2 °F 84% 29.84 in 6.2 mi North 4.6 mph - N/A   Scattered Clouds
1:00 AM 79 °F - 76 °F 88% 29.78 in 6 mi West 6.7 mph - -   Haze
1:00 AM 80.6 °F 86.2 °F 75.2 °F 84% 29.81 in 6.2 mi WNW 6.9 mph - N/A   Partly Cloudy
2:00 AM 80.6 °F 86.2 °F 75.2 °F 84% 29.79 in 6.2 mi West 4.6 mph - N/A   Partly Cloudy
3:00 AM 80.6 °F 86.2 °F 75.2 °F 84% 29.77 in 6.2 mi WNW 4.6 mph - N/A   Partly Cloudy
4:00 AM 79 °F - 76 °F 88% 29.78 in 6 mi West 6.7 mph - -   Haze
4:00 AM 78.8 °F - 77.0 °F 94% 29.77 in 6.2 mi West 5.8 mph - N/A   Scattered Clouds
5:00 AM 78.8 °F - 77.0 °F 94% 29.78 in 6.2 mi Calm Calm - N/A   Scattered Clouds
6:00 AM 77.0 °F - 75.2 °F 94% 29.79 in 1.2 mi Calm Calm - N/A   Mostly Cloudy
7:00 AM 76 °F - 75 °F 97% 29.82 in 0 mi Calm Calm - - Fog Partial Fog
7:00 AM 77.0 °F - 75.2 °F 94% 29.81 in 0.5 mi Calm Calm - N/A Fog Fog
8:00 AM 77.0 °F - 75.2 °F 94% 29.84 in 1.2 mi NE 4.6 mph - N/A   Mostly Cloudy
8:32 AM 80.6 °F 87.1 °F 77.0 °F 89% 29.85 in 5.6 mi ENE 6.9 mph - N/A   Scattered Clouds
9:00 AM 82.4 °F 90.9 °F 77.0 °F 84% 29.91 in 5.6 mi SW 6.9 mph - N/A   Mostly Cloudy
10:00 AM 86 °F - 76 °F 66% 29.87 in 6 mi SSW 8.9 mph - -   Haze
10:00 AM 86.0 °F 96.9 °F 77.0 °F 74% 29.92 in 6.2 mi WSW 9.2 mph - N/A   Scattered Clouds
11:00 AM 87.8 °F 99.7 °F 77.0 °F 70% 29.91 in 6.2 mi South 4.6 mph - N/A   Scattered Clouds
12:00 PM 91.4 °F 102.5 °F 75.2 °F 59% 29.89 in 6.2 mi SSW 6.9 mph - N/A   Scattered Clouds
1:00 PM 93.2 °F 98.8 °F 69.8 °F 46% 29.85 in 6.2 mi West 10.4 mph - N/A   Mostly Cloudy
2:00 PM 89.6 °F 98.2 °F 73.4 °F 59% 29.82 in 6.2 mi WNW 9.2 mph - N/A   Scattered Clouds
3:00 PM 86.0 °F 91.8 °F 71.6 °F 62% 29.80 in 6.2 mi WNW 11.5 mph - N/A   Mostly Cloudy
4:00 PM 84 °F - 75 °F 69% 29.76 in 6 mi NW 8.9 mph - -   Haze
4:00 PM 84.2 °F 92.3 °F 75.2 °F 74% 29.82 in 6.2 mi WNW 10.4 mph - N/A   Scattered Clouds
5:00 PM 84.2 °F 90.9 °F 73.4 °F 70% 29.81 in 6.2 mi NW 8.1 mph - N/A   Scattered Clouds
6:00 PM 82.4 °F 87.2 °F 71.6 °F 70% 29.83 in 6.2 mi WNW 5.8 mph - N/A   Scattered Clouds
7:00 PM 82.4 °F 88.2 °F 73.4 °F 74% 29.84 in 6.2 mi NW 6.9 mph - N/A   Scattered Clouds
8:00 PM 82.4 °F 90.9 °F 77.0 °F 84% 29.85 in 6.2 mi NW 5.8 mph - N/A   Partly Cloudy
9:00 PM 82.4 °F 89.5 °F 75.2 °F 79% 29.87 in 6.2 mi WNW 8.1 mph - N/A   Scattered Clouds
10:00 PM 81 °F - 75 °F 78% 29.82 in 6 mi NW 4.5 mph - -   Haze
10:00 PM 80.6 °F 86.2 °F 75.2 °F 84% 29.81 in 6.2 mi NW 4.6 mph - N/A   Partly Cloudy
11:00 PM 80.6 °F 86.2 °F 75.2 °F 84% 29.81 in 6.2 mi North 3.5 mph - N/A   Partly Cloudy